一网星座-0114星 (ONEWEB-0114 )

导读

ONEWEB-0114是英国OneWeb星座项目中的低轨通信卫星,于2020年12月18日发射入轨。作为OneWeb一期组网卫星,单星重约147.5公斤,设计寿命5年,配备Ku/Ka波段天线与霍尔推进器,单星通信能力约7.5Gbps。该卫星旨在依托低轨星座,为全球提供宽带互联网接入服务,助力填补全球网络覆盖空白,推动泛在连接实现。

基本信息
目录编号:
47262
目录名称:
ONEWEB-0114
国际标识:
2020-100E
轨道中心:
EARTH
卫星名称:
一网星座-0114星
卫星全名:
一网星座-0114星 (ONEWEB-0114 )
卫星状态:
在轨 (已飞行2047 天)
发射日期:
2020-12-18 UTC
国别 :
英国 (GB)
星等 :
--
轨道信息
数据来源 国际轨道数据 AOE轨道数据
星历时间 2026-07-27T23:16:10+0800
7小时前
查看轨道信息
2026-07-25T06:00:00+0800
3天前
查看轨道信息
半长轴 7591.859km 7591.821km
偏心率 0.0002015 0.000187
轨道倾角 87.899° 87.901°
近地点辐角 94.091° 61.820°
升交点赤经 342.622° 343.159°
平近点角 266.045° 56.284°
近地点 1212.192km 1212.264km
远地点 1215.252km 1215.104km
周期 109.719分钟 109.718分钟
每日圈数 13.124435 13.124532
详细信息
平衡模式:
三轴稳定
覆盖范围:
全球
运营商:
一网卫星公司
运营商所在国:
英国
制造商(研发单位):
一网卫星公司
制造商所在国:
英国
使用方式:
暂无
卫星简介
OneWeb卫星网络由648颗重约125公斤的微型卫星组成,运行在1200公里的轨道上。 每颗卫星都能够提供至少每秒8千兆位的吞吐量,以使用其高吞吐量的Ku频段有效载荷为家庭和移动平台提供互联网接入。该卫星仍在工作。
2D轨道图
3D轨道图
轨道高度分析图
轨道倾角分析图
轨道综合分析图
查看轨道综合分析图